Regional Weather Roundup
Issued by NWS

Home | Current Version | Previous Version | Text Only | Print | Product List | Glossary Off
Versions: 1 2 3 4 5 6 7 8 9 10 11 12 13 14 15 16 17 18 19 20 21 22 23 24 25 26 27 28 29 30 31 32 33 34 35 36 37 38 39 40 41 42 43 44 45 46 47 48 49 50

794
ASUS44 KLIX 052010
RWRLA
LOUISIANA WEATHER ROUNDUP
NATIONAL WEATHER SERVICE NEW ORLEANS LA
200 PM CST THU MAR 05 2015

NOTE: "FAIR" INDICATES FEW OR NO CLOUDS BELOW 12,000 FEET WITH NO
      SIGNIFICANT WEATHER AND/OR OBSTRUCTIONS TO VISIBILITY.
      SKY/WX - SKY CONDITION AND SIGNIFICANT WEATHER.
      TMP - AIR TEMPERATURE.    DP   - DEWPOINT TEMPERATURE.
      RH  - RELATIVE HUMIDITY.  PRES - PRESSURE.
      HX  - HEAT INDEX.         WCI  - WIND CHILL INDEX.

*  THESE STATIONS ARE NOT NWS OR FAA STATIONS AND ARE NOT UNDER
   NWS QUALITY CONTROL.

LAZ040-048-061>063-065-066-069-052100-
SOUTHEAST LOUISIANA

CITY           SKY/WX    TMP DP  RH WIND       PRES   REMARKS
N.O. AUDUBON   NOT AVBL
N.O. INTL ARPT CLOUDY    39  32  76 N26G37    30.27R WCI  28
N.O. LAKEFRONT CLOUDY    43  36  76 N31G38    30.27R
SLIDELL        CLOUDY    39  32  76 N16G28    30.25R WCI  30
BATON ROUGE    LGT RAIN  33  29  85 N9G20     30.35F FOG     WCI  25
BOOTHVILLE     CLOUDY    50  43  77 N16G28    30.17S
BELLE CHASSE   CLOUDY    43  35  73 N16G29    30.22R
BOGALUSA*        N/A     37  32  84 N21G28    30.33S WCI  26
GALLIANO*      CLOUDY    47  39  75 NW24G33   30.22R
NEW ROADS*     MIX PCPN  32  28  86 N12G18    30.39S WCI  23
GONZALES*      CLOUDY    36  32  84 N17G28    30.29F WCI  26
HAMMOND*       CLOUDY    36  30  80 N20G28    30.33F WCI  25
HOUMA*         CLOUDY    45  37  76 N24       30.23S
PORT FOURCHON* CLOUDY    48  43  81 N30G37    30.22R

$$

LAZ041-044-053-054-052100-
SOUTHWEST LOUISIANA

CITY           SKY/WX    TMP DP  RH WIND       PRES   REMARKS
LAKE CHARLES   CLOUDY    36  30  79 N21G26    30.39R WCI  25
LAFAYETTE      CLOUDY    32  28  85 N23G29    30.37S WCI  19
PATTERSON      CLOUDY    37  30  75 N16G22    30.29R WCI  28
SALT POINT       N/A     37  32  82 N14G25    30.28R WCI  28
NEW IBERIA     FLURRIES  34  28  79 N25G36    30.35S WCI  21
CHENAULT AIRPK NOT AVBL

$$

LAZ027-028-052100-
CENTRAL LOUISIANA

CITY           SKY/WX    TMP DP  RH WIND       PRES   REMARKS
FORT POLK      PTSUNNY   37  28  69 N17G23    30.42F WCI  27
ALEXANDRIA INT PTSUNNY   34  25  69 N15G25    30.44F WCI  24
ALEXANDRIA     PTSUNNY   35  24  64 NE12G21   30.46R WCI  27

$$

LAZ001-002-052100-
NORTHWEST LOUISIANA

CITY           SKY/WX    TMP DP  RH WIND       PRES   REMARKS
SHREVEPORT     MOSUNNY   40  22  48 NE18G28   30.51F WCI  31
BARKSDALE AFB  SUNNY     40  23  50 NE15      30.51F WCI  31
DTN SHREVEPORT SUNNY     39  19  44 N10G18    30.52F WCI  32

$$

LAZ014-016-052100-
NORTHEAST LOUISIANA

CITY           SKY/WX    TMP DP  RH WIND       PRES   REMARKS
MONROE         SUNNY     37  20  50 N20G31    30.50F WCI  27
TALLULAH       PTSUNNY   31  20  63 N26G35    30.49S WCI  17

$$




USA.gov is the U.S. government's official web portal to all federal, state and local government web resources and services.